Showing default

HULIANWANG DIGUI-91, 65999

Orbit data source: Space-Track

HULIANWANG DIGUI-91, 65999 is a payload satellite owned by Zhongguo Xingwang (CN) in LEO that was launched on Thu, 16 Oct 2025 UTC via a CHANG ZHENG 8A launch vehicle from the Wenchang Satellite Launch Center (WSC). Payload-class satellites include a variety of spacecraft equipped with specific instruments for various scientific and technological missions. These include communications satellites like Starlink; space stations such as the ISS; scientific satellites like the Hubble; Earth observation satellites from companies like Planet Labs, Umbra, and HawkEye 360; GPS; miniature CubeSats for education and research; and military/defense satellites.

Loading next visibility...
Identifier
65999, 2025-231E
Orbit
LEO
Country
Flag of CNCN / PRC
Related business
Manufacturer
CAST
Mission
Operational Civil Communications
Bus & Motor
XINGWANG C, Unknown motor
Mass
~700 kg wet, ~700 kg dry
Launch date (UTC)
2025-10-16 (8 months ago)
Launch vehicle
CHANG ZHENG 8A
Launch site
Wenchang Satellite Launch Center (WSC)
Object type
Payload
Rocket body
Debris
Shape & HBR
Box + 2 Pan, 2.0 m
Radar Cross Section
5.935 m², Large (>1 m²)

Expand to show TLE details & history
Last TLE update: 16 hours ago

TLE from 16 hours ago
0 HULIANWANG DIGUI-91
1 65999U 25231E   26171.22245993 -.00000127  00000-0 -73983-5 0  9991
2 65999  49.9990 164.7617 0000870 247.7002 112.3778 13.29326367 33297
Epoch: 2026-06-20T05:20Z
TLE epoch observation values (Epoch: 2026-06-20T05:20:20.537Z)
Latitude
-0.00003°
Longitude
176.23593°
Altitude
1,150.06 km
Speed
7.279 km/s
True Right ascension
10h 59m 02s
True Declination
0° 00' 00"
Sunlit
Object was in daylight at epoch
Visualization orbit readout
Latitude
Unknown
Longitude
Unknown
Altitude
Unknown
Speed
Unknown
Apparent Right ascension
Unknown
Apparent Declination
Unknown
Sunlit
N/A
Visualization observer readout
Local Sidereal Time
08:42:34
Azimuth
Unknown
Elevation
Unknown
Doppler factor
Unknown
Orbital elements
Apogee altitude
1,150.666 km
Perigee altitude
1,149.356 km
Semi-major axis
7,528.148 km
Eccentricity
0.00009
Inclination
49.999°
RAAN
164.7617°
Arg. of periapsis
247.7002°
True anomaly
112.38702°
Mean anomaly
112.3778°
Eccentric anomaly
112.38241°
Mean motion
3.32285 °/min
Orbital period
108.34 mins
BSTAR
-0.0000073983
Loading maneuver chart data...
Computing Atmospheric mass density...
Loading historical data...
Loading historical data...
Loading historical data...
Loading historical data...
Loading historical data...
Loading historical data...
Loading historical data...

Documentation

Showing up to 5 results
|